Погода в Новом Девяткино

Россия / Санкт-Петербург и Ленинградская область     60°03′26″N   30°28′34″E
темп.,
°C
ветер,
м/с
пор.,
м/с
влажн.,
%
обл.,
%
осадки,
мм/ч
давл.,
гПа
погр.,
м
5 августа, чт
чт500:00+10ююз22805 0.0 101621
03:00+10юз228214 0.0 101626
06:00+10юз118219 0.0 101725
09:00+17юз115922 0.0 1017419
12:00+21ююз114087 0.0 10172228
15:00+17св3456100 0.0 1016434
18:00+16св2662100 0.0 1016197
21:00+14св2672100 0.0 1016136
6 августа, пт
пт600:00+11всв228419 0.0 101728
03:00+12с118243 0.0 101622
06:00+11ссв23925 0.0 101656
09:00+17св47575 0.0 1016664
12:00+20всв59465 0.0 10161796
15:00+20всв684595 0.0 10152143
18:00+18всв51153100 0.0 10151607
21:00+14всв51268100 0.0 10151005
7 августа, сб
сб700:00+13всв51180100 0.0 1014711
03:00+14всв51083100 0.0 1013845
06:00+13всв51286100 0.0 1012517
09:00+15всв51380100 0.1 1011659
12:00+15всв51394100 4.8 1010705
15:00+15в51195100 4.9 1010770
18:00+15всв41198100 2.9 1009645
21:00+15в3999100 6.8 1009451
8 августа, вс
вс800:00+15всв3799100 0.4 1008445
03:00+15в1299100 0.4 1008134
06:00+15ююв1199100 0.0 100877
09:00+16ююз0198100 0.3 1009130
12:00+17ссз1396100 0.4 1010220
15:00+17св129594 0.8 1011210
18:00+17ссв2395100 0.1 1011208
21:00+15св129884 0.1 101366
9 августа, пн
пн900:00+14св229868 0.0 101456
03:00+15всв1297100 0.0 101459
06:00+15в119571 0.0 101433
09:00+18в228235 0.0 1014446
12:00+21в226392 0.0 10141030
15:00+22всв4462100 0.0 1014956
18:00+19св477474 0.0 1013393
21:00+17св41186100 0.0 1012354